Location: Pine Mountain Observatory
(43.7910°N, 120.9377°W)
Time: 18:50:53
(UTC-08:00)

APEX - Visible Passes

Search period start: 05 February 2016 00:00
Search period end: 15 February 2016 00:00
Orbit: 334 x 1265 km, 69.9° (Epoch: 05 February)

Date Brightness Start Highest point End Pass type
(mag) Time Alt. Az. Time Alt. Az. Time Alt. Az.
05 Feb 5.3 19:22:03 10° NNW 19:25:46 26° NNE 19:25:46 26° NNE visible
05 Feb 6.6 21:05:29 10° NW 21:06:42 16° NW 21:06:42 16° NW visible
06 Feb 5.2 18:54:24 10° N 18:58:53 23° NE 18:58:53 23° NE visible
06 Feb 5.9 20:37:28 10° NW 20:39:50 24° NW 20:39:50 24° NW visible
07 Feb 5.4 18:26:48 10° N 18:30:42 18° NE 18:32:03 17° ENE visible
07 Feb 5.1 20:09:29 10° NNW 20:13:00 37° NW 20:13:00 37° NW visible
08 Feb 5.7 17:59:18 10° N 18:02:26 15° NE 18:05:13 10° ENE visible
08 Feb 4.0 19:41:33 10° NNW 19:46:14 61° N 19:46:14 61° N visible
09 Feb 3.6 19:13:40 10° NNW 19:19:02 58° ENE 19:19:32 55° E visible
09 Feb 6.6 20:58:47 10° WNW 21:00:29 14° W 21:00:29 14° W visible
10 Feb 4.1 18:45:48 10° NNW 18:50:58 43° NE 18:52:55 27° ESE visible
10 Feb 5.9 20:30:06 10° NW 20:33:35 19° W 20:33:53 19° WSW visible
11 Feb 4.5 18:17:57 10° NNW 18:22:48 32° NE 18:26:24 11° ESE visible
11 Feb 5.5 20:01:43 10° NW 20:05:51 27° WSW 20:07:22 21° SW visible
12 Feb 4.8 17:50:09 10° N 17:54:34 25° NE 17:58:08 10° ESE visible
12 Feb 4.9 19:33:27 10° NW 19:38:02 37° WSW 19:41:02 14° S visible
13 Feb 4.2 19:05:16 10° NW 19:10:08 53° WSW 19:13:50 10° S visible
14 Feb 3.6 18:37:09 10° NNW 18:42:09 77° WSW 18:45:55 10° SSE visible
